Location: San Martino di Castrozza
(46.2667°N, 11.8000°E)
Time: 02:27:28
(UTC+00:00)

Cosmos 44 - Pass Details

Date: 23 April 2021
Orbit: 571 x 791 km, 65.1° (Epoch: 15 May)

Event Time Altitude Azimuth Distance (km) Brightness Sun altitude
Rises 02:48:18 0° 322° (NW) 3,297 6.8 -13.7°
Reaches altitude 10° 02:50:45 10° 322° (NW) 2,361 6.0 -13.3°
Maximum altitude 02:56:13 78° 237° (WSW) 800 3.5 -12.6°
Drops below altitude 10° 03:01:28 10° 152° (SSE) 2,274 5.9 -11.8°
Sets 03:03:48 0° 151° (SSE) 3,166 6.7 -11.5°
